Wautoma, WI

4:43 AM CDT on June 23, 2017 (GMT -0500)
Wautoma

Weather History for KY50 - February, 2013

Change the Weather History Date:

Thursday, February 14, 2013

  Actual Average (KPCZ) Record (KPCZ)
Temperature  
Mean Temperature 26 °F -  
Max Temperature 32 °F 29 °F 51 °F (1967)
Min Temperature 19 °F 11 °F -23 °F (1951)
Degree Days  
Heating Degree Days 38    
Moisture  
Dew Point 26 °F    
Average Humidity 89    
Maximum Humidity 100    
Minimum Humidity 63    
Precipitation  
Precipitation 0.00 in - - ()
Sea Level Pressure  
Sea Level Pressure 29.69 in    
Wind  
Wind Speed 0 mph (North)    
Max Wind Speed 0 mph    
Max Gust Speed -    
Visibility 4 miles    
Events Snow    
Averages and records for this station are not official NWS values.
T = Trace of Precipitation, MM = Missing Value Source: NWS Daily Summary

Daily Weather History Graph

Daily Weather History Graph

Search for Another Location

Airport or City:

Trip Planner

Search our weather history database for the weather conditions in past years. The results will help you decide how hot, cold, wet, or windy it might be!

Date:

Astronomy

Feb. 14, 2013 Rise Set
Actual Time 6:57 AM CST 5:25 PM CST
Civil Twilight 6:27 AM CST 5:55 PM CST
Nautical Twilight 5:53 AM CST 6:29 PM CST
Astronomical Twilight 5:20 AM CST 7:02 PM CST
Moon 8:47 AM CST (2/14) 10:41 PM CST (2/14)
Length of Visible Light 11h 27m
Length of Day
10h 28m
Waxing Crescent, 22% of the Moon is Illuminated
Feb 14
Waxing Crescent
Feb 17
First Quarter
Feb 25
Full
Mar 4
Last Quarter
Mar 11
New

Hourly Weather History & Observations

Time (CST) Temp. Dew Point Humidity Pressure Visibility Wind Dir Wind Speed Gust Speed Precip Events Conditions
12:41 AM 30.2 °F 26.6 °F 86% 29.62 in 2.5 mi Calm Calm - 0.00 in Snow Light Snow
12:46 AM 30.2 °F 26.6 °F 86% 29.62 in 1.8 mi Calm Calm - 0.00 in Snow Light Snow
12:56 AM 30.0 °F 27.1 °F 89% 29.63 in 1.2 mi Calm Calm - 0.00 in Snow Light Snow
1:03 AM 30.2 °F 28.4 °F 93% 29.61 in 1.0 mi Calm Calm - 0.00 in Snow Light Snow
1:31 AM 30.2 °F 28.4 °F 93% 29.60 in 0.8 mi Calm Calm - 0.00 in Snow Light Snow
1:56 AM 30.0 °F 30.0 °F 100% 29.61 in 1.0 mi Calm Calm - 0.00 in Snow Light Snow
2:06 AM 30.2 °F 30.2 °F 100% 29.59 in 0.8 mi Calm Calm - 0.00 in Snow Light Snow
2:13 AM 30.2 °F 30.2 °F 100% 29.58 in 1.0 mi Calm Calm - 0.00 in Snow Light Snow
2:27 AM 30.2 °F 30.2 °F 100% 29.58 in 1.5 mi Calm Calm - 0.00 in Snow Light Snow
2:38 AM 30.2 °F 30.2 °F 100% 29.57 in 2.5 mi Calm Calm - 0.00 in Snow Light Snow
2:45 AM 30.2 °F 30.2 °F 100% 29.57 in 3.0 mi Calm Calm - 0.00 in Snow Light Snow
2:56 AM 30.2 °F 30.2 °F 100% 29.57 in 3.0 mi Calm Calm - N/A Snow Light Snow
3:07 AM 30.2 °F 30.2 °F 100% 29.56 in 2.0 mi Calm Calm - 0.00 in Snow Light Snow
3:18 AM 30.2 °F 30.2 °F 100% 29.56 in 1.8 mi Calm Calm - 0.00 in   Overcast
3:28 AM 30.2 °F 30.2 °F 100% 29.55 in 2.0 mi Calm Calm - 0.00 in   Overcast
3:56 AM 31.1 °F 31.1 °F 100% 29.57 in 1.8 mi Calm Calm - 0.00 in   Overcast
4:15 AM 30.2 °F 30.2 °F 100% 29.55 in 2.0 mi Calm Calm - N/A   Overcast
4:39 AM 30.2 °F 30.2 °F 100% 29.55 in 1.5 mi Calm Calm - N/A   Overcast
4:56 AM 31.1 °F 31.1 °F 100% 29.56 in 1.5 mi Calm Calm - N/A   Overcast
5:56 AM 30.0 °F 30.0 °F 100% 29.56 in 1.0 mi Calm Calm - N/A   Overcast
6:06 AM 30.2 °F 30.2 °F 100% 29.55 in 0.8 mi Calm Calm - N/A   Overcast
6:19 AM 30.2 °F 30.2 °F 100% 29.55 in 1.0 mi Calm Calm - N/A   Overcast
6:26 AM 30.2 °F 30.2 °F 100% 29.55 in 1.2 mi Calm Calm - N/A   Overcast
6:44 AM 30.2 °F 30.2 °F 100% 29.55 in 1.5 mi Calm Calm - N/A   Overcast
6:56 AM 31.1 °F 31.1 °F 100% 29.57 in 1.2 mi Calm Calm - N/A   Overcast
7:02 AM 30.2 °F 30.2 °F 100% 29.56 in 0.8 mi Calm Calm - N/A   Overcast
7:23 AM 30.2 °F 30.2 °F 100% 29.56 in 0.8 mi Calm Calm - N/A   Overcast
7:41 AM 30.2 °F 30.2 °F 100% 29.57 in 1.2 mi Calm Calm - N/A   Overcast
7:56 AM 31.1 °F 31.1 °F 100% 29.60 in 1.8 mi Calm Calm - 0.00 in   Overcast
8:05 AM 32.0 °F 32.0 °F 100% 29.58 in 2.5 mi Calm Calm - 0.00 in   Overcast
8:16 AM 32.0 °F 32.0 °F 100% 29.58 in 3.0 mi Calm Calm - 0.00 in   Overcast
8:29 AM 30.2 °F 30.2 °F 100% 29.59 in 2.5 mi Calm Calm - 0.00 in   Overcast
9:19 AM 30.2 °F 28.4 °F 93% 29.62 in 4.0 mi Calm Calm - 0.00 in Snow Light Snow
9:56 AM 30.0 °F 27.1 °F 89% 29.66 in 3.0 mi Calm Calm - 0.00 in Snow Light Snow
10:10 AM 30.2 °F 26.6 °F 86% 29.65 in 7.0 mi Calm Calm - 0.00 in Snow Light Snow
10:35 AM 28.4 °F 26.6 °F 93% 29.67 in 2.5 mi Calm Calm - 0.00 in Snow Light Snow
10:38 AM 28.4 °F 26.6 °F 93% 29.67 in 1.2 mi Calm Calm - 0.00 in Snow Light Snow
10:42 AM 28.4 °F 26.6 °F 93% 29.67 in 0.8 mi Calm Calm - 0.00 in Snow Light Snow
10:49 AM 28.4 °F 26.6 °F 93% 29.68 in 1.2 mi Calm Calm - 0.00 in Snow Light Snow
10:56 AM 29.1 °F 26.1 °F 88% 29.70 in 3.0 mi Calm Calm - 0.00 in Snow Light Snow
11:09 AM 30.2 °F 26.6 °F 86% 29.69 in 7.0 mi Calm Calm - 0.00 in Snow Light Snow
11:56 AM 30.2 °F 24.8 °F 80% 29.70 in 10.0 mi Calm Calm - N/A   Overcast
12:05 PM 30.2 °F 24.8 °F 80% 29.70 in 10.0 mi Calm Calm - 0.00 in   Overcast
12:13 PM 30.2 °F 24.8 °F 80% 29.71 in 10.0 mi Calm Calm - 0.00 in   Overcast
12:56 PM 30.0 °F 23.0 °F 75% 29.74 in 10.0 mi Calm Calm - 0.00 in   Overcast
1:35 PM 28.4 °F 23.0 °F 80% 29.75 in 4.0 mi Calm Calm - 0.00 in Snow Light Snow
1:56 PM 29.1 °F 24.1 °F 81% 29.78 in 3.0 mi Calm Calm - 0.00 in Snow Light Snow
2:21 PM 28.4 °F 24.8 °F 86% 29.77 in 4.0 mi Calm Calm - 0.00 in Snow Light Snow
2:56 PM 30.2 °F 24.8 °F 80% 29.79 in 6.0 mi Calm Calm - N/A Snow Light Snow
3:56 PM 30.0 °F 23.0 °F 75% 29.84 in 10.0 mi Calm Calm - 0.00 in   Mostly Cloudy
4:56 PM 30.0 °F 22.1 °F 72% 29.88 in 10.0 mi Calm Calm - 0.00 in   Overcast
5:56 PM 29.1 °F 19.0 °F 66% 29.90 in 10.0 mi Calm Calm - N/A   Overcast
6:56 PM 28.0 °F 17.1 °F 63% 29.93 in 10.0 mi Calm Calm - N/A   Mostly Cloudy
7:56 PM 26.1 °F 18.1 °F 72% 29.94 in 10.0 mi Calm Calm - N/A   Mostly Cloudy
8:56 PM 26.6 °F 19.4 °F 74% 29.94 in 10.0 mi Calm Calm - N/A   Mostly Cloudy
9:34 PM 24.8 °F 17.6 °F 74% 29.96 in 10.0 mi Calm Calm - 0.00 in   Overcast
9:56 PM 24.1 °F 16.2 °F 72% 30.00 in 10.0 mi Calm Calm - 0.00 in   Overcast
10:25 PM 23.0 °F 14.0 °F 68% 29.99 in 10.0 mi Calm Calm - 0.00 in   Overcast
10:44 PM 21.2 °F 12.2 °F 68% 29.99 in 10.0 mi Calm Calm - 0.00 in Snow Light Snow
10:56 PM 22.1 °F 12.0 °F 65% 30.03 in 10.0 mi Calm Calm - 0.00 in   Overcast
11:56 PM 19.4 °F 8.6 °F 63% 30.03 in 10.0 mi Calm Calm - N/A Snow Light Snow